Regional Weather Roundup
Issued by NWS

Home | Current Version | Previous Version | Graphics & Text | Print | Product List | Glossary On
Versions: 1 2 3 4 5 6 7 8 9 10 11 12 13 14 15 16 17 18 19 20 21 22 23 24 25 26 27 28 29 30 31 32 33 34 35 36 37 38 39 40 41 42 43 44 45 46 47 48 49 50
000
ASUS43 KFSD 241010
RWRSD

WEATHER ROUNDUP FOR SOUTH DAKOTA
NATIONAL WEATHER SERVICE SIOUX FALLS SD
500 AM CDT THU JUL 24 2014

NOTE: "FAIR" INDICATES FEW OR NO CLOUDS BELOW 12,000 FEET WITH NO
SIGNIFICANT WEATHER AND/OR OBSTRUCTIONS TO VISIBILITY.


SDZ001>005-009-010-012>017-241100-
NORTHWEST AND NORTH CENTRAL SOUTH DAKOTA

CITY           SKY/WX    TMP DP  RH WIND       PRES   REMARKS
BUFFALO          N/A     73  58  59 SE21G35   29.75F
FAITH            N/A     67  58  72 E14       29.94R
MOBRIDGE       PTCLDY    68  58  70 SE20G25   29.95F
$$

SDZ012>016-024>037-041>051-057-063-072>074-241100-
SOUTHWEST AND SOUTH CENTRAL SOUTH DAKOTA

CITY           SKY/WX    TMP DP  RH WIND       PRES   REMARKS
RAPID CTY ARPT CLOUDY    65  63  93 SE7       29.92F
PIERRE         CLOUDY    70  59  68 SE24      29.97F
CUSTER         MOCLDY    64  60  87 W5        30.10F
ELLSWORTH AFB  MOCLDY    68  64  86 S13       29.91F
PHILIP         MOCLDY    67  59  75 E6        29.94F
PINE RIDGE     PTCLDY    71  64  78 S23G37    29.94F
WINNER         FAIR      70  58  65 SE14      30.03F
$$

SDZ004>011-016>023-039-040-241100-
NORTHEAST SOUTH DAKOTA

CITY           SKY/WX    TMP DP  RH WIND       PRES   REMARKS
ABERDEEN       MOCLDY    59  56  89 SE6       30.08F
WATERTOWN      PTCLDY    61  53  75 SE5       30.13F
SISSETON         N/A     57  56  96 SE5       30.11F
$$

SDZ017-020-022-023-036>040-048>070-241100-
SOUTHEAST SOUTH DAKOTA

CITY           SKY/WX    TMP DP  RH WIND       PRES   REMARKS
SIOUX FALLS    MOCLDY    65  56  72 SE9       30.13F
HURON          MOCLDY    64  54  69 SE9       30.07F
CHAMBERLAIN    CLOUDY    66  58  76 SE10      30.05F
MITCHELL       MOCLDY    65  59  81 SE8       30.09F
YANKTON        MOCLDY    61  57  88 E6        30.11S
$$

ABBREVIATIONS USED IN REMARKS
   TC - TEMPERATURE IN CELSIUS
  WCI - WIND CHILL INDEX
   HX - HEAT INDEX
  VSB - VISIBILITY



USA.gov is the U.S. government's official web portal to all federal, state and local government web resources and services.